Regional Weather Roundup
Issued by NWS Charleston, SC

Current Version | Previous Version | Text Only | Print | Product List | Glossary Off
Versions: 1 2 3 4 5 6 7 8 9 10 11 12 13 14 15 16 17 18 19 20 21 22 23 24 25 26 27 28 29 30 31 32 33 34 35 36 37 38 39 40 41 42 43 44 45 46 47 48 49 50

000
ASUS42 KCHS 261310
RWRCHS
REGIONAL WEATHER ROUNDUP
NATIONAL WEATHER SERVICE CHARLESTON SC
800 AM EST FRI DEC 26 2014

NOTE: "FAIR" INDICATES FEW OR NO CLOUDS BELOW 12,000 FEET WITH NO
SIGNIFICANT WEATHER AND/OR OBSTRUCTIONS TO VISIBILITY.

NOT ALL STATIONS ARE QUALITY CONTROLLED BY THE NATIONAL
WEATHER SERVICE. USE DATA WITH CAUTION...ESPECIALLY
DEWPOINT OBSERVATIONS.

SCZ027-030-031-034>040-042>050-261400-
...SOUTHEAST SOUTH CAROLINA...

CITY           SKY/WX    TMP DP  RH WIND       PRES   REMARKS
N CHARLESTON   PTCLDY    38  36  92 CALM      30.31R
WATERFRONT PRK   N/A     45 N/A N/A N5          N/A
MOUNT PLEASANT FAIR      37  37 100 CALM      30.31R
PINOPOLIS      NOT AVBL
MONCKS CORNER  FAIR      37  37 100 CALM      30.32R FOG
SUMMERVILLE    FAIR      36  36 100 CALM      30.33R
BEAUFORT MCAS  CLEAR     39  37  92 CALM      30.32R
BEAUFORT ARPT  FAIR      41  39  93 CALM      30.31R
HILTON HEAD IS CLEAR     39  39 100 CALM      30.31R
WALTERBORO     SUNNY     34 N/A N/A CALM      30.33R
ALLENDALE      FAIR      34  34 100 CALM      30.32R

...SOUTHERN MIDLANDS AND PEE DEE...

CITY           SKY/WX    TMP DP  RH WIND       PRES   REMARKS
GEORGETOWN     NOT AVBL
KINGSTREE      NOT AVBL
ORANGEBURG     PTCLDY    35  32  88 CALM      30.33R
BARNWELL         N/A     32  32 100 CALM      30.33R
AIKEN          FAIR      32  32 100 CALM      30.35R
MANNING        FAIR      34 N/A N/A CALM      30.33R
COLUMBIA       PTCLDY    32  31  96 W3        30.34R FOG
SUMTER         PTCLDY    33  31  92 CALM      30.32R
FLORENCE       CLEAR     36  34  92 N3        30.34R
MYRTLE BEACH   CLEAR     39  36  87 CALM      30.34R
N MYRTLE BEACH CLEAR     36  34  92 N3        30.32R

$$

GAZ063-065-086>088-099>101-113>116-118-119-134>141-150-261400-
...SOUTHEAST GEORGIA...

CITY           SKY/WX    TMP DP  RH WIND       PRES   REMARKS
SAVANNAH ARPT  PTCLDY    40  37  89 CALM      30.31R
HUNTER AAF     CLEAR     39  39 100 N2        30.29R
FORT STEWART   PTCLDY    36  34  95 CALM      30.30R
STATESBORO     PTCLDY    32  32 100 CALM      30.32R
SYLVANIA       SUNNY     34  34 100 CALM      30.32R
CLAXTON        FOG       34  34 100 CALM      30.32R VSB 1/4

...CSRA...CENTRAL AND FAR SOUTHEAST GEORGIA...

CITY           SKY/WX    TMP DP  RH WIND       PRES   REMARKS
THOMSON        CLEAR     30  30 100 CALM      30.37R
AUGUSTA-BUSH   CLOUDY    32  31  96 CALM      30.34R FOG
AUGUSTA-DANIEL PTCLDY    38  35  89 N6        30.32R WCI  33
SWAINSBORO     FAIR     N/A N/A N/A CALM      30.32R
VIDALIA        PTCLDY    36  36 100 CALM      30.31R
EASTMAN        FOG       32  32 100 CALM      30.34R VSB 1/4
HAZLEHURST     FAIR      37  37 100 CALM      30.29S
ALMA           PTCLDY    38  37  97 CALM      30.30R
WAYCROSS       CLEAR     39  39  98 CALM      30.30R
JESUP          FAIR      36  36 100 CALM      30.30S
BAXLEY         FAIR      39  37  93 CALM      30.30S
BRUNSWICK      CLEAR     36  36 100 CALM      30.30S
SAINT SIMONS   CLEAR     43  40  89 N3        30.29R

$$

SCZ027-028-034-036>038-045-046-048>050-GAZ119-141-261400-
...LAKE AND SUPPLEMENTAL COASTAL OBSERVATIONS...

STATION/POSITION TIME  TEMP    WIND        PRES    WAVE   SWELL
                       AIR SEA DIR/SP/G            HT/PER HT/PER/DIR
                 (UTC) (F)     (DEG/KT/KT) (MB)    (FT/S) (FT/S/D)
UPR LAKE MARION  NOT AVBL
WINYAH BAY       1200   40     320/  5     1025.0S
LAKE MURRAY      1200   36        CALM     1026.1R
ACE BASIN NERRS  NOT AVBL
FORT PULASKI     1300   43 55  330/  4/  5 1026.4S
SAPELO ISLAND    1200   40      30/  5     1025.0S

$$

ANZ835-935-AMZ111-154-330-350-352-354-370-450-454-472-261400-
...C-MAN AND BUOY OBSERVATIONS...

STATION/POSITION TIME  TEMP    WIND        PRES    WAVE   SWELL
                       AIR SEA DIR/SP/G            HT/PER HT/PER/DIR
                 (UTC) (F)     (DEG/KT/KT) (MB)    (FT/S) (FT/S/D)
BUOY 41004       1300   62 71   40/  4/  6 1025.1R   2/ 7   2/ 7
BUOY 41008       1300   56 58   30/  8/ 10 1025.4R   2/ 8   2/130/ 8
FOLLY BEACH CMAN 1200   44     320/  4/  6 1026.2R
CAPERS NEARSHORE 1200   49     360/  8/  8   N/A
FRIPP NEARSHORE  NOT AVBL


STATION/POSITION TIME  TEMP    WIND        PRES    WAVE   SWELL
                       AIR SEA DIR/SP/G            HT/PER HT/PER/DIR
                 (UTC) (F)     (DEG/KT/KT) (MB)    (FT/S) (FT/S/D)
5E ST. MARYS GA  1300      61                N/A     2/ 8
FRYING PAN BUOY  1300   60 70   30/  8/ 10 1026.3R   2/ 7   2/150/ 7
BUOY 41025       1300   57                 1026.5R   3/ 7
CAPE LOOKOUT NC  1200   49     360/  8/  9 1026.1R
BUOY 41002       1225   68 71   60/ 10/ 14 1024.5R   5/ 7   5/230/ 7
BUOY 41010       1300   70 76   30/  8/ 12 1023.5R   3/ 6
ST AUGUSTINE FL  1300   50     310/  6/  7 1025.3R


$$



USA.gov is the U.S. government's official web portal to all federal, state and local government web resources and services.